Regional Weather Roundup
Issued by NWS

Home | Current Version | Previous Version | Text Only | Print | Product List | Glossary Off
Versions: 1 2 3 4 5 6 7 8 9 10 11 12 13 14 15 16 17 18 19 20 21 22 23 24 25 26 27 28 29 30 31 32 33 34 35 36 37 38 39 40 41 42 43 44 45 46 47 48 49 50

554
ASUS44 KJAN 241710
RWRMS

MISSISSIPPI HOURLY WEATHER ROUNDUP
NATIONAL WEATHER SERVICE JACKSON MS
1200 PM CDT FRI OCT 24 2014

NOTE: "FAIR: INDICATES FEW OR NO CLOUDS BELOW 12,000 FEET WITH NO
SIGNIFICANT WEATHER AND/OR OBSTRUCTIONS TO VISIBILITY.

MSZ001>002-007>008-010>013-018>021-025>028-034>036-241800-
NORTHWEST MISSISSIPPI

CITY           SKY/WX    TMP DP  RH WIND       PRES   REMARKS
CLARKSDALE     FAIR      64  46  52 NW6       30.16F
CLEVELAND      FAIR      65  47  51 NW6       30.16F
GREENWOOD      SUNNY     67  43  41 N6        30.15F
GREENVILLE     SUNNY     67  43  41 VRB5      30.16S
GRENADA          N/A    N/A N/A N/A MISG        N/A
OLIVE BRANCH   MOSUNNY   64  46  52 CALM      30.15F
OXFORD         FAIR      64  43  45 NW7       30.16S
TUNICA         SUNNY     64  46  52 N3        30.16F
$$

MSZ003>006-009-014>017-022>024-029>033-037>039-241800-
NORTHEAST MISSISSIPPI

CITY           SKY/WX    TMP DP  RH WIND       PRES   REMARKS
COLUMBUS AFB   SUNNY     67  45  44 VRB5      30.12F
CORINTH        FAIR      66  43  42 VRB6      30.14S
GOLDN TRIANGLE SUNNY     70  46  43 N8        30.12F
STARKVILLE     FAIR      66  45  45 N6        30.12F
TUPELO         SUNNY     67  45  45 VRB5      30.13F
$$

MSZ040-058-241800-
CENTRAL MISSISSIPPI

CITY           SKY/WX    TMP DP  RH WIND       PRES   REMARKS
JACKSON INTL   MOSUNNY   69  44  40 N7        30.13F
JACKSON HAWKNS SUNNY     68  43  40 NW8       30.14F
MERIDIAN KEY   SUNNY     71  44  37 NE9       30.11F
MERIDIAN NAS   SUNNY     70  45  40 NW12      30.12F
RAYMOND        FAIR      68  63  83 NW7       30.14F
VICKSBURG      SUNNY     68  47  46 NE8       30.17F
$$

MSZ059>079-241800-
SOUTH MISSISSIPPI

CITY           SKY/WX    TMP DP  RH WIND       PRES   REMARKS
BROOKHAVEN     FAIR      66  48  52 CALM      30.15F
COLUMBIA         N/A    N/A N/A N/A MISG        N/A
HATTIESBURG    SUNNY     70  49  47 N6        30.11F
MCCOMB         SUNNY     69  41  36 N9        30.13F
NATCHEZ        SUNNY     66  48  52 N10       30.16F
PINE BELT      SUNNY     70  45  40 N9        30.13S
$$

MSZ080>082-241800-
COASTAL MISSISSIPPI

CITY           SKY/WX    TMP DP  RH WIND       PRES   REMARKS
BAY ST LOUIS   SUNNY     72  43  35 CALM      30.10F
BILOXI         SUNNY     73  46  37 N6        30.09F
PASCAGOULA     SUNNY     73  45  36 VRB7      30.09S
GULFPORT       MOSUNNY   72  46  39 N7        30.09F
$$



USA.gov is the U.S. government's official web portal to all federal, state and local government web resources and services.